EW8788 Weather Reports


time (UTC)temp
F
wind
direction
speed
knots
gust
knots
rain 1hr
in
rain 24hr
in
rain mn
in
humidity
%
barometer
mb
20260507211018 70 0 4.3 7.8 0.00 0.00 0.00 34 1008.0
20260507210515 70 0 3.5 10.4 0.00 0.00 0.00 34 1008.0
20260507210015 70 0 3.5 10.4 0.00 0.00 0.00 34 1007.9
20260507205510 70 0 2.6 8.7 0.00 0.00 0.00 34 1008.0
20260507205005 71 351 3.5 8.7 0.00 0.00 0.00 34 1008.0
20260507204502 71 306 3.5 7.8 0.00 0.00 0.00 34 1008.0
20260507204003 71 0 3.5 9.6 0.00 0.00 0.00 37 1008.0
20260507203003 68 327 1.7 4.3 0.00 0.00 0.00 36 1008.1
20260507202502 67 0 1.7 5.2 0.00 0.00 0.00 36 1008.2
20260507202002 67 0 0.9 5.2 0.00 0.00 0.00 36 1008.2
20260507201502 66 0 1.7 4.3 0.00 0.00 0.00 37 1008.2
20260507201001 66 292 0.9 1.7 0.00 0.00 0.00 38 1008.2
20260507195947 0 45 0.0 0.9 0.00 0.00 0.00 1008.2
20260507195443 67 45 0.0 6.1 0.00 0.00 0.00 39 1008.3
20260507194431 0 0.0 0.0 0.00 0.00 0.00 1008.4
20260507193929 0 0.0 0.0 0.00 0.00 0.00 1008.5
20260507193429 70 266 0.9 4.3 0.00 0.00 0.00 36 1008.5
20260507192923 70 266 0.9 4.3 0.00 0.00 0.00 36 1008.6
20260507192417 0 0.0 0.0 0.00 0.00 0.00 1008.8
20260507191911 0 0.0 0.0 0.00 0.00 0.00 1008.8
20260507190903 0 0.0 0.0 0.00 0.00 0.00 1008.9
20260507190402 0 0.0 0.0 0.00 0.00 0.00 1008.9
20260507185903 0 0.0 0.0 0.00 0.00 0.00 1009.0
20260507185359 0 0.0 0.0 0.00 0.00 0.00 1008.9
20260507184851 0 0.0 0.0 0.00 0.00 0.00 1009.1
20260507183840 0 0 3.5 5.2 0.00 0.00 0.00 1009.1
20260507183341 69 0 3.5 5.2 0.00 0.00 0.00 42 1009.1
20260507182840 69 0 3.5 5.2 0.00 0.00 0.00 42 1009.2
20260507182341 69 324 0.9 3.5 0.00 0.00 0.00 42 1009.2
20260507181837 69 292 2.6 6.1 0.00 0.00 0.00 42 1009.2
20260507180828 67 272 3.5 8.7 0.00 0.00 0.00 41 1009.4
20260507180330 66 0 5.2 8.7 0.00 0.00 0.00 41 1009.5
20260507175827 67 1 3.5 5.2 0.00 0.00 0.00 42 1009.5
20260507174825 68 286 3.5 11.3 0.00 0.00 0.00 41 1009.7
20260507174320 67 351 4.3 11.3 0.00 0.00 0.00 41 1009.8
20260507173815 66 39 2.6 8.7 0.00 0.00 0.00 44 1010.0
20260507173310 67 31 3.5 7.8 0.00 0.00 0.00 43 1010.1
20260507172803 66 4 4.3 6.1 0.00 0.00 0.00 44 1010.2
20260507172307 67 38 4.3 6.1 0.00 0.00 0.00 42 1010.3
20260507171801 66 10 1.7 6.1 0.00 0.00 0.00 39 1010.3
20260507171302 66 6 2.6 6.1 0.00 0.00 0.00 43 1010.4
20260507170302 65 37 4.3 7.8 0.00 0.00 0.00 44 1010.6
20260507165757 65 104 5.2 8.7 0.00 0.00 0.00 41 1010.7
20260507165259 66 353 3.5 10.4 0.00 0.00 0.00 45 1010.9
20260507164756 65 23 6.1 10.4 0.00 0.00 0.00 42 1010.8
20260507163752 64 0 4.3 10.4 0.00 0.00 0.00 44 1011.1
20260507163252 65 353 5.2 11.3 0.00 0.00 0.00 41 1011.2
20260507162750 64 0 2.6 11.3 0.00 0.00 0.00 46 1011.3
20260507162244 64 0 6.1 9.6 0.00 0.00 0.00 43 1011.3
20260507161739 64 0 2.6 6.1 0.00 0.00 0.00 45 1011.4
20260507161230 64 0 2.6 6.1 0.00 0.00 0.00 44 1011.4
20260507160728 62 0 2.6 8.7 0.00 0.00 0.00 44 1011.4
20260507160227 62 0 1.7 8.7 0.00 0.00 0.00 45 1011.6
20260507155729 62 152 1.7 7.8 0.00 0.00 0.00 42 1011.7
20260507155227 63 0 3.5 7.8 0.00 0.00 0.00 43 1011.8
20260507154216 62 4 0.9 10.4 0.00 0.00 0.00 44 1011.9
20260507153712 62 0 7.0 10.4 0.00 0.00 0.00 44 1011.9
20260507152203 60 0 3.5 9.6 0.00 0.00 0.00 44 1012.3
20260507151703 60 0 4.3 9.6 0.00 0.00 0.00 48 1012.3
20260507151207 60 0 2.6 7.8 0.00 0.00 0.00 47 1012.4
20260507150702 60 0 5.2 7.8 0.00 0.00 0.00 46 1012.5
20260507150204 59 0 3.5 7.8 0.00 0.00 0.00 44 1012.7
20260507145706 59 0 2.6 10.4 0.00 0.00 0.00 47 1012.6
20260507144702 58 32 3.5 5.2 0.00 0.00 0.00 50 1012.8
20260507143202 57 21 3.5 6.1 0.00 0.00 0.00 49 1013.1
20260507142704 56 0 3.5 6.1 0.00 0.00 0.00 48 1013.2
20260507142203 56 0 1.7 5.2 0.00 0.00 0.00 52 1013.2
20260507141702 56 0 3.5 4.3 0.00 0.00 0.00 48 1013.4
20260507141204 56 0 2.6 4.3 0.00 0.00 0.00 48 1013.5
20260507140703 56 0 1.7 4.3 0.00 0.00 0.00 53 1013.4
20260507140204 56 0 2.6 4.3 0.00 0.00 0.00 49 1013.6
20260507135704 56 66 2.6 4.3 0.00 0.00 0.00 49 1013.6
20260507134654 55 344 0.9 5.2 0.00 0.00 0.00 57 1013.8
20260507134157 54 6 2.6 5.2 0.00 0.00 0.00 56 1013.8
20260507133653 54 334 1.7 3.5 0.00 0.01 0.00 55 1013.9
20260507132653 53 0 0.0 2.6 0.00 0.01 0.00 60 1014.1
20260507132151 53 137 0.0 1.7 0.00 0.01 0.00 60 1014.0
20260507131650 53 0 0.0 2.6 0.00 0.01 0.00 59 1014.0
20260507130638 53 0 1.7 2.6 0.00 0.01 0.00 61 1013.8
20260507130131 53 0 1.7 3.5 0.00 0.01 0.00 61 1013.9
20260507125130 53 0 0.9 3.5 0.00 0.01 0.00 60 1014.0
20260507124631 53 24 1.7 2.6 0.00 0.01 0.00 60 1014.0
20260507123626 53 0 1.7 3.5 0.00 0.03 0.00 61 1014.0
20260507123127 52 0 1.7 4.3 0.00 0.04 0.00 63 1014.0
20260507122130 52 93 2.6 4.3 0.00 0.05 0.00 62 1013.7
20260507121627 52 0 1.7 4.3 0.00 0.05 0.00 62 1013.8
20260507121126 52 0 1.7 4.3 0.00 0.06 0.00 63 1013.9
20260507120628 52 0 1.7 3.5 0.00 0.07 0.00 62 1013.8
20260507120128 52 0 1.7 3.5 0.00 0.07 0.00 62 1013.8
20260507115626 52 0 1.7 3.5 0.00 0.07 0.00 61 1013.7
20260507114628 52 0 2.6 3.5 0.00 0.08 0.00 60 1013.6
20260507114127 52 0 1.7 5.2 0.00 0.08 0.00 59 1013.8
20260507113628 52 0 1.7 6.1 0.00 0.08 0.00 61 1013.7
20260507112626 52 0 2.6 5.2 0.00 0.10 0.00 63 1013.5
20260507112125 52 0 2.6 3.5 0.00 0.11 0.00 63 1013.4
20260507111626 52 0 1.7 3.5 0.00 0.11 0.00 63 1013.4
20260507111130 52 0 2.6 3.5 0.00 0.12 0.00 63 1013.2
20260507110626 52 0 1.7 4.3 0.00 0.12 0.00 63 1013.2
20260507105627 52 0 1.7 4.3 0.00 0.12 0.00 64 1013.3
20260507105126 52 0 1.7 5.2 0.00 0.12 0.00 64 1013.4
20260507104126 52 0 1.7 6.1 0.00 0.12 0.00 66 1013.1
20260507103626 52 0 3.5 5.2 0.00 0.12 0.00 67 1013.0
20260507102626 53 0 2.6 3.5 0.00 0.12 0.00 69 1013.0
20260507102127 53 0 1.7 3.5 0.00 0.12 0.00 70 1012.8
20260507101627 53 0 1.7 3.5 0.00 0.12 0.00 71 1012.8
20260507101127 53 0 0.0 2.6 0.00 0.12 0.00 71 1012.7
20260507100626 53 0 0.9 2.6 0.00 0.12 0.00 69 1012.7
20260507100127 53 0 1.7 2.6 0.00 0.12 0.00 69 1012.6
20260507095626 53 0 1.7 2.6 0.00 0.12 0.00 69 1012.5
20260507094626 53 0 1.7 3.5 0.00 0.12 0.00 68 1012.7
20260507093626 53 0 1.7 4.3 0.00 0.12 0.00 71 1012.5
20260507093127 53 0 2.6 4.3 0.00 0.12 0.00 70 1012.6
20260507092626 53 0 0.9 3.5 0.00 0.12 0.00 71 1012.4
20260507090626 54 0 1.7 6.1 0.00 0.12 0.00 72 1012.5
20260507090127 54 0 3.5 6.1 0.00 0.12 0.00 72 1012.3
20260507085627 54 0 1.7 5.2 0.00 0.12 0.00 73 1012.4
20260507085126 54 0 2.6 5.2 0.00 0.12 0.00 73 1012.5
20260507084626 54 0 1.7 4.3 0.00 0.12 0.00 73 1012.4
20260507084127 54 0 3.5 4.3 0.00 0.12 0.00 73 1012.5
20260507083626 54 0 0.9 3.5 0.00 0.12 0.00 73 1012.4
20260507082627 54 0 1.7 4.3 0.00 0.12 0.00 72 1012.4
20260507082126 54 0 2.6 4.3 0.00 0.12 0.00 73 1012.3
20260507080627 54 0 3.5 5.2 0.00 0.12 0.00 72 1012.5
20260507080127 54 0 1.7 2.6 0.00 0.12 0.00 73 1012.4
20260507075628 54 0 1.7 3.5 0.00 0.12 0.00 72 1012.3
20260507075126 54 0 0.9 4.3 0.00 0.12 0.00 72 1012.1
20260507074126 54 0 0.9 4.3 0.00 0.12 0.00 72 1012.0
20260507073616 54 0 2.6 4.3 0.00 0.12 0.00 72 1011.9
20260507073112 54 0 0.9 1.7 0.00 0.12 0.00 72 1011.8
20260507072611 54 0 0.9 3.5 0.00 0.12 0.00 72 1011.8
20260507072110 54 0 1.7 4.3 0.00 0.12 0.00 72 1011.8
20260507071609 54 0 1.7 4.3 0.00 0.12 0.00 72 1011.9
20260507071109 54 0 0.9 3.5 0.00 0.12 0.00 72 1011.7
20260507070609 54 0 1.7 3.5 0.00 0.12 0.00 73 1011.8
20260507070109 54 0 0.9 3.5 0.00 0.12 0.00 72 1011.8
20260507065606 54 0 2.6 4.3 0.00 0.12 0.00 73 1011.9
20260507065103 54 0 2.6 4.3 0.00 0.12 0.00 72 1011.8
20260507064104 54 0 0.9 2.6 0.00 0.12 0.00 72 1012.0
20260507063602 54 0 0.9 1.7 0.00 0.12 0.00 73 1012.1
20260507063100 54 0 0.9 2.6 0.00 0.12 0.00 73 1012.1
20260507062559 54 0 0.9 4.3 0.00 0.12 0.00 73 1012.0
20260507062054 54 0 1.7 4.3 0.00 0.12 0.00 73 1012.4
20260507061043 54 0 1.7 3.5 0.00 0.12 0.00 74 1012.4
20260507060543 54 0 1.7 2.6 0.00 0.12 0.00 73 1012.6
20260507060043 55 0 0.9 4.3 0.00 0.12 0.00 71 1012.7
20260507055541 55 0 2.6 4.3 0.00 0.12 0.00 71 1012.8
20260507055041 55 0 3.5 4.3 0.00 0.12 0.00 70 1012.8
20260507054536 55 0 1.7 3.5 0.00 0.12 0.00 71 1012.7
20260507054034 55 0 1.7 3.5 0.00 0.12 0.00 70 1012.7
20260507053532 55 0 1.7 5.2 0.00 0.12 0.00 70 1012.7
20260507053032 55 0 1.7 5.2 0.00 0.12 0.00 70 1012.7
20260507052531 55 0 2.6 8.7 0.00 0.12 0.00 70 1012.4
20260507052032 55 0 3.5 8.7 0.00 0.12 0.00 70 1012.5
20260507051530 55 0 3.5 6.1 0.00 0.12 0.00 71 1012.4
20260507051028 55 0 3.5 6.1 0.00 0.12 0.00 71 1012.0
20260507050527 55 0 1.7 5.2 0.00 0.12 0.00 71 1012.1
20260507045526 56 0 2.6 5.2 0.00 0.12 0.00 70 1012.1
20260507045024 56 0 2.6 7.8 0.00 0.12 0.00 70 1012.1
20260507044523 56 353 2.6 11.3 0.00 0.12 0.00 71 1012.0
20260507044017 56 343 4.3 11.3 0.00 0.12 0.00 73 1012.0
20260507043518 56 16 2.6 10.4 0.00 0.12 0.00 74 1012.0
20260507043016 56 14 4.3 10.4 0.00 0.12 0.00 73 1012.0
20260507042513 56 316 7.0 10.4 0.00 0.12 0.00 76 1011.9
20260507042012 56 347 4.3 7.8 0.00 0.12 0.00 76 1011.5
20260507041508 57 1 3.5 6.1 0.00 0.12 0.00 76 1011.1
20260507041011 57 347 3.5 6.1 0.00 0.12 0.00 76 1011.6
20260507040510 57 1 3.5 5.2 0.00 0.12 0.00 76 1011.9
20260507040007 57 344 1.7 5.2 0.00 0.12 0.00 76 1012.0
20260507035508 57 10 3.5 5.2 0.00 0.12 0.12 75 1012.1
20260507034504 57 358 3.5 5.2 0.00 0.12 0.12 76 1011.7
20260507033505 58 16 1.7 4.3 0.00 0.12 0.12 74 1011.6
20260507033004 58 0 2.6 5.2 0.00 0.12 0.12 74 1011.8
20260507032504 58 348 2.6 5.2 0.00 0.12 0.12 74 1011.9
20260507031502 58 8 3.5 7.8 0.00 0.12 0.12 75 1012.0
20260507030501 58 0 3.5 5.2 0.00 0.12 0.12 75 1011.5
20260507025501 58 58 2.6 3.5 0.00 0.12 0.12 74 1011.4
20260507024500 59 0 1.7 4.3 0.00 0.12 0.12 73 1011.6
20260507024004 59 0 1.7 5.2 0.00 0.12 0.12 73 1011.8
20260507023458 59 0 2.6 5.2 0.00 0.12 0.12 72 1011.8
20260507022954 59 0 3.5 7.8 0.00 0.12 0.12 73 1011.7
20260507022451 59 0 5.2 7.8 0.00 0.12 0.12 73 1011.6
20260507021951 59 0 3.5 9.6 0.00 0.12 0.12 73 1011.4
20260507021448 59 0 6.1 9.6 0.00 0.12 0.12 73 1011.3
20260507020948 59 0 4.3 6.1 0.00 0.12 0.12 73 1011.1
20260507020442 59 0 3.5 5.2 0.00 0.12 0.12 73 1010.9
20260507015941 60 0 1.7 4.3 0.00 0.12 0.12 73 1011.0
20260507015441 60 0 2.6 5.2 0.00 0.12 0.12 73 1011.0
20260507014939 60 94 3.5 5.2 0.00 0.12 0.12 73 1011.0
20260507014433 60 110 2.6 6.1 0.00 0.12 0.12 73 1011.0
20260507013932 60 0 3.5 6.1 0.00 0.12 0.12 72 1011.0
20260507013430 60 0 2.6 5.2 0.00 0.12 0.12 72 1010.9
20260507012930 60 0 2.6 6.1 0.00 0.12 0.12 72 1011.1
20260507012428 61 0 1.7 6.1 0.00 0.12 0.12 71 1011.1
20260507011926 61 0 2.6 6.1 0.00 0.12 0.12 72 1010.7
20260507011426 61 0 3.5 6.1 0.00 0.12 0.12 71 1010.5
20260507010927 61 0 3.5 5.2 0.00 0.12 0.12 72 1010.7
20260507010425 61 0 3.5 5.2 0.00 0.12 0.12 71 1010.8
20260507005925 61 0 2.6 5.2 0.00 0.12 0.12 72 1010.6
20260507005426 62 0 2.6 11.3 0.00 0.12 0.12 72 1010.5
20260507004927 62 0 1.7 11.3 0.00 0.12 0.12 72 1010.5
20260507004431 62 0 2.6 8.7 0.00 0.12 0.12 72 1010.7
20260507003926 62 0 1.7 8.7 0.00 0.12 0.12 72 1010.6
20260507003426 62 0 5.2 7.8 0.00 0.12 0.12 72 1010.7
20260507002927 62 0 2.6 9.6 0.00 0.12 0.12 73 1010.8
20260507002427 62 320 3.5 9.6 0.00 0.12 0.12 74 1010.3
20260507001925 63 0 1.7 4.3 0.00 0.12 0.12 74 1010.3
20260507001427 63 14 1.7 6.1 0.00 0.12 0.12 74 1010.3
20260507000925 63 0 0.9 6.1 0.00 0.12 0.12 74 1010.4
20260507000427 63 355 2.6 5.2 0.00 0.12 0.12 74 1010.4
20260506235925 63 4 3.5 5.2 0.00 0.12 0.12 73 1010.4
20260506235427 63 0 1.7 7.8 0.00 0.12 0.12 73 1010.3
20260506234925 64 0 4.3 7.8 0.00 0.12 0.12 73 1010.2
20260506234426 64 0 3.5 6.1 0.00 0.12 0.12 74 1010.2
20260506233927 64 0 2.6 7.8 0.00 0.12 0.12 73 1010.1
20260506233425 64 0 5.2 7.8 0.00 0.12 0.12 73 1009.9
20260506232926 65 0 3.5 5.2 0.00 0.12 0.12 73 1009.6
20260506232426 65 0 3.5 4.3 0.00 0.12 0.12 73 1009.6
20260506231925 65 0 2.6 5.2 0.00 0.12 0.12 73 1009.6
20260506231426 65 0 2.6 5.2 0.00 0.12 0.12 73 1009.4
20260506230925 65 319 1.7 5.2 0.00 0.12 0.12 72 1009.4
20260506230440 65 306 1.7 8.7 0.00 0.12 0.12 73 1009.3
20260506225926 66 329 4.3 9.6 0.00 0.12 0.12 72 1009.4
20260506225426 66 323 5.2 9.6 0.00 0.12 0.12 72 1009.4
20260506224926 67 314 5.2 9.6 0.00 0.12 0.12 72 1009.2
20260506224425 67 0 6.1 9.6 0.00 0.12 0.12 72 1009.0
20260506223925 67 331 5.2 9.6 0.00 0.12 0.12 72 1009.0
20260506223425 68 0 2.6 6.1 0.00 0.12 0.12 72 1008.9
20260506222927 68 320 2.6 7.8 0.00 0.12 0.12 71 1009.0
20260506222426 69 334 4.3 7.8 0.00 0.12 0.12 70 1008.9
20260506221926 69 343 4.3 8.7 0.00 0.12 0.12 70 1008.8
20260506220425 70 0 4.3 9.6 0.00 0.12 0.12 70 1008.6
20260506215925 70 0 4.3 7.8 0.00 0.12 0.12 68 1008.6
20260506215425 71 0 2.6 6.1 0.00 0.12 0.12 69 1008.4
20260506214925 71 10 3.5 6.1 0.00 0.12 0.12 69 1008.3
20260506214425 72 337 3.5 6.1 0.00 0.12 0.12 67 1008.2
20260506213425 72 350 1.7 2.6 0.00 0.12 0.12 67 1008.2
20260506212426 73 0 1.7 2.6 0.00 0.12 0.12 69 1008.0
20260506211926 71 6 0.9 1.7 0.00 0.12 0.12 70 1008.0